Flag for U.S.A. Weather past 2 weeks in Billings, Montana, U.S.A.

Now
23 °F

Overcast.


Feels Like: 12 °F
Forecast: 13 / 26 °F
Wind: 10 mph from Southwest

Location: Billings Logan International Airport

Current Time: Dec 28, 2014 at 6:12:26 AM

Latest Report: Dec 28, 2014 at 4:53 AM


Visibility: 10 mi

Pressure: 29.93 "Hg

Humidity: 63%

Dew point: 12 °F

Location of BillingsLocation

Historic Weather in Billings — Graph

°F

Billings temperature yesterday

Maximum temperature yesterday: 24 °F (at 2:53 PM)
Minimum temperature yesterday: 16 °F (at 12:53 AM)
Average temperature yesterday: 20 °F

Past Weeks' High & Low Weather Summary

 TemperatureHumidityPressure
High57 °F (Dec 13, 2:53 PM)96% (Dec 15, 6:53 PM)30.37 "Hg (Dec 15, 6:53 PM)
Low8 °F (Dec 26, 5:53 AM)29% (Dec 21, 2:53 PM)29.41 "Hg (Dec 21, 12:53 PM)
Average30 °F69%30.00 "Hg
* Reported Dec 13 4:53 AM — Dec 28 4:53 AM, Billings, Weather by CustomWeather, © 2014

Note: Actual official high and low records may vary slightly from our data, if they occured in-between our weather recording intervals... More about our weather records

Advertising

Billings weather history for previous 24 hours

 ConditionsComfort  
Time TempWeatherWind HumidityBarometerVisibility
4:53 AM
Dec 28
23 °FOvercast.10 mph63%29.93 "Hg10 mi
3:53 AM22 °FOvercast.6 mph72%29.94 "Hg10 mi
2:53 AM24 °FOvercast.10 mph60%29.96 "Hg10 mi
1:53 AM23 °FLight snow. Overcast.13 mph74%29.97 "Hg1 mi
12:53 AM24 °FMostly cloudy.15 mph57%29.98 "Hg10 mi
11:53 PM
Dec 27
22 °FOvercast.15 mph62%30.00 "Hg10 mi
10:53 PM21 °FPartly cloudy.16 mph62%30.03 "Hg10 mi
9:53 PM21 °FPartly cloudy.16 mph62%30.05 "Hg10 mi
8:53 PM21 °FPassing clouds.20 mph62%30.07 "Hg10 mi
7:53 PM22 °FPassing clouds.17 mph62%30.08 "Hg10 mi
6:53 PM22 °FPassing clouds.15 mph66%30.11 "Hg10 mi
5:53 PM23 °FPassing clouds.17 mph63%30.12 "Hg10 mi
4:53 PM24 °FPassing clouds.17 mph65%30.12 "Hg10 mi
3:53 PM24 °FPartly sunny.18 mph65%30.13 "Hg10 mi
2:53 PM24 °FBroken clouds.18 mph65%30.14 "Hg10 mi
1:53 PM23 °FBroken clouds.18 mph65%30.14 "Hg10 mi
12:53 PM23 °FBroken clouds.21 mph68%30.15 "Hg10 mi
11:53 AM21 °FPartly sunny.18 mph74%30.19 "Hg10 mi
10:53 AM20 °FPartly sunny.15 mph74%30.23 "Hg10 mi
9:53 AM20 °FPartly sunny.16 mph71%30.25 "Hg10 mi
8:53 AM19 °FPartly sunny.7 mph74%30.24 "Hg10 mi
7:53 AM20 °FPartly cloudy.16 mph71%30.23 "Hg10 mi
6:53 AM19 °FPassing clouds.15 mph74%30.22 "Hg10 mi
Weather by CustomWeather, © 2014

See weather overviewHow to use our weather pages